QPF
0.01 0.01 0.00 0.00 0.00 0.00 0.03 0.01 0.00 0.00 0.00 0.00 0.00 0.00 0.17 0.01 0.00 0.00 0.00 0.00 0.00 0.00 0.00 0.00 0.00 0.00 0.00 0.00 0.00 0.00 0.00 0.00 0.00 0.00 0.00 0.00 0.00 0.00 0.00 0.00 0.00 0.00 0.00 0.00 0.00 0.00 0.00 0.00 0.00 0.00 0.00 0.00 0.00 0.00 0.00 0.00 0.00 0.00 0.00 0.00 0.00 0.00 0.00
0.00 0.00 0.00 0.00 0.07 0.11 0.15 0.13 0.00 0.00 0.00 0.00 0.00 0.00 0.00 0.00 0.00 0.00 0.00 0.00 0.00 0.00 0.00 0.00 0.00 0.00 0.00 0.00 0.00 0.00 0.00 0.00 0.00 0.00 0.00 0.00 0.00 0.00 0.00 0.00 0.00 0.00 0.00 0.00 0.00 0.00 0.00 0.00 0.00 0.00 0.00 0.00 0.00 0.00 0.00 0.00 0.00 0.00 0.00 0.00 0.00 0.00 0.00
0.00 0.01 0.00 0.10 0.32 0.58 0.72 0.21 0.07 0.09 0.04 0.04 0.00 0.00 0.00 0.00 0.00 0.00 0.00 0.00 0.00 0.00 0.00 0.00 0.00 0.00 0.00 0.00 0.00 0.00 0.00 0.00 0.00 0.00 0.00 0.00 0.00 0.00 0.00 0.00 0.00 0.00 0.00 0.00 0.00 0.00 0.00 0.00 0.00 0.00 0.00 0.00 0.00 0.00 0.00 0.00 0.00 0.00 0.00 0.00 0.00 0.00 0.00
0.01 0.03 0.10 0.29 0.47 0.27 0.49 0.56 0.42 0.21 0.44 0.59 0.26 0.00 0.00 0.00 0.00 0.00 0.00 0.01 0.00 0.00 0.00 0.00 0.00 0.00 0.00 0.00 0.00 0.00 0.00 0.00 0.00 0.00 0.00 0.00 0.00 0.00 0.00 0.00 0.00 0.00 0.00 0.00 0.00 0.00 0.00 0.00 0.00 0.00 0.00 0.00 0.00 0.00 0.00 0.00 0.00 0.00 0.00 0.00 0.00 0.00 0.00
0.00 0.03 0.23 0.64 0.64 0.98 1.05 0.87 0.68 1.09 0.43 0.46 0.17 0.00 0.02 0.01 0.00 0.00 0.00 0.00 0.01 0.01 0.00 0.00 0.00 0.00 0.00 0.00 0.00 0.00 0.00 0.00 0.00 0.00 0.00 0.00 0.00 0.00 0.00 0.00 0.00 0.00 0.00 0.00 0.00 0.00 0.00 0.00 0.00 0.00 0.00 0.00 0.00 0.00 0.00 0.00 0.00 0.00 0.00 0.00 0.00 0.00 0.00
0.02 0.16 0.29 0.56 0.68 0.61 0.32 0.17 0.25 0.16 0.03 0.06 0.07 0.02 0.00 0.03 0.01 0.00 0.00 0.00 0.00 0.00 0.00 0.00 0.00 0.00 0.00 0.00 0.00 0.00 0.00 0.00 0.00 0.00 0.00 0.00 0.00 0.00 0.00 0.00 0.00 0.00 0.00 0.00 0.00 0.00 0.00 0.00 0.00 0.00 0.00 0.00 0.00 0.00 0.00 0.00 0.00 0.00 0.00 0.00 0.00 0.00 0.00
0.01 0.04 0.10 0.12 0.04 0.07 0.01 0.01 0.01 0.01 0.00 0.01 0.07 0.11 0.05 0.01 0.07 0.28 0.24 0.04 0.00 0.00 0.00 0.00 0.00 0.00 0.00 0.00 0.00 0.00 0.00 0.00 0.00 0.00 0.00 0.00 0.00 0.00 0.00 0.00 0.00 0.00 0.00 0.00 0.00 0.00 0.00 0.00 0.00 0.00 0.00 0.00 0.00 0.00 0.00 0.00 0.00 0.00 0.00 0.00 0.00 0.00 0.00
0.00 0.00 0.01 0.03 0.01 0.01 0.00 0.00 0.00 0.00 0.00 0.03 0.06 0.07 0.05 0.02 0.02 0.28 0.22 0.08 0.04 0.02 0.07 0.03 0.03 0.23 0.23 0.23 0.11 0.03 0.01 0.01 0.01 0.00 0.00 0.00 0.00 0.00 0.00 0.00 0.00 0.00 0.00 0.00 0.00 0.00 0.00 0.00 0.00 0.00 0.00 0.00 0.00 0.00 0.00 0.00 0.00 0.00 0.00 0.00 0.00 0.00 0.00
0.00 0.00 0.00 0.00 0.00 0.00 0.00 0.01 0.00 0.00 0.00 0.01 0.02 0.02 0.02 0.02 0.03 0.15 0.28 0.28 0.39 0.66 0.85 0.56 0.53 0.78 0.72 0.77 0.67 0.32 0.16 0.16 0.06 0.05 0.02 0.00 0.00 0.00 0.00 0.00 0.00 0.00 0.00 0.00 0.00 0.00 0.00 0.00 0.00 0.00 0.00 0.00 0.00 0.00 0.00 0.00 0.00 0.00 0.00 0.00 0.00 0.00 0.00
0.00 0.00 0.00 0.00 0.00 0.00 0.00 0.02 0.00 0.00 0.00 0.00 0.01 0.01 0.01 0.01 0.10 0.14 0.19 0.50 0.35 0.64 0.49 0.46 0.91 0.58 0.59 0.47 0.33 0.35 0.50 0.23 0.21 0.19 0.10 0.08 0.03 0.00 0.00 0.00 0.00 0.00 0.00 0.00 0.00 0.00 0.00 0.00 0.00 0.00 0.00 0.00 0.00 0.00 0.00 0.00 0.00 0.00 0.00 0.00 0.00 0.00 0.00
0.00 0.00 0.00 0.00 0.00 0.00 0.00 0.00 0.00 0.00 0.00 0.02 0.07 0.01 0.05 0.11 0.10 0.13 0.27 0.42 0.31 0.64 0.68 0.35 0.12 0.36 0.79 0.55 0.29 0.20 0.13 0.30 0.24 0.08 0.28 0.39 0.12 0.01 0.00 0.00 0.00 0.00 0.00 0.00 0.00 0.00 0.00 0.00 0.00 0.00 0.00 0.00 0.00 0.00 0.00 0.00 0.00 0.00 0.00 0.00 0.00 0.00 0.00
0.00 0.00 0.00 0.00 0.00 0.00 0.00 0.00 0.00 0.00 0.00 0.04 0.01 0.05 0.23 0.37 0.25 0.32 0.39 0.42 0.34 0.65 0.89 0.53 0.42 0.20 0.15 0.13 0.05 0.02 0.03 0.04 0.01 0.02 0.01 0.00 0.00 0.00 0.00 0.00 0.00 0.00 0.00 0.00 0.00 0.00 0.00 0.00 0.00 0.00 0.00 0.00 0.00 0.00 0.00 0.00 0.00 0.00 0.00 0.00 0.00 0.00 0.00
0.00 0.00 0.00 0.00 0.00 0.00 0.00 0.00 0.00 0.00 0.00 0.00 0.06 0.10 0.28 0.18 0.24 0.36 0.51 0.48 0.33 0.28 0.30 0.18 0.06 0.08 0.08 0.18 0.11 0.06 0.03 0.02 0.02 0.02 0.01 0.00 0.00 0.00 0.00 0.00 0.00 0.00 0.00 0.00 0.00 0.00 0.00 0.00 0.00 0.00 0.00 0.00 0.00 0.00 0.00 0.00 0.00 0.00 0.00 0.00 0.00 0.00 0.00
0.00 0.00 0.00 0.00 0.00 0.00 0.00 0.00 0.00 0.00 0.00 0.05 0.02 0.02 0.02 0.02 0.03 0.18 0.06 0.17 0.29 0.28 0.10 0.04 0.01 0.03 0.20 0.05 0.02 0.01 0.01 0.01 0.01 0.01 0.00 0.00 0.00 0.00 0.00 0.00 0.00 0.00 0.00 0.00 0.00 0.00 0.00 0.00 0.00 0.00 0.00 0.00 0.00 0.00 0.00 0.00 0.00 0.00 0.00 0.00 0.00 0.00 0.00
0.00 0.00 0.00 0.00 0.00 0.00 0.00 0.00 0.00 0.00 0.00 0.00 0.12 0.01 0.00 0.00 0.00 0.01 0.06 0.04 0.17 0.04 0.01 0.01 0.01 0.01 0.03 0.07 0.09 0.03 0.00 0.00 0.00 0.00 0.00 0.00 0.00 0.00 0.00 0.00 0.00 0.00 0.00 0.00 0.00 0.00 0.00 0.00 0.00 0.00 0.00 0.00 0.00 0.00 0.00 0.00 0.00 0.00 0.00 0.00 0.00 0.00 0.00
0.00 0.00 0.00 0.00 0.00 0.00 0.00 0.00 0.00 0.00 0.00 0.45 0.04 0.07 0.00 0.02 0.07 0.05 0.06 0.31 0.18 0.01 0.00 0.00 0.00 0.00 0.02 0.04 0.01 0.01 0.01 0.00 0.00 0.00 0.00 0.00 0.00 0.00 0.00 0.00 0.01 0.01 0.00 0.00 0.00 0.00 0.00 0.00 0.00 0.00 0.00 0.00 0.00 0.00 0.00 0.00 0.00 0.00 0.00 0.00 0.00 0.00 0.00
0.00 0.00 0.00 0.00 0.00 0.00 0.00 0.00 0.00 0.00 0.01 0.02 0.01 0.05 0.06 0.07 0.04 0.46 0.83 0.14 0.05 0.00 0.00 0.01 0.00 0.00 0.01 0.01 0.00 0.00 0.00 0.00 0.00 0.00 0.00 0.00 0.01 0.01 0.01 0.01 0.02 0.02 0.01 0.00 0.00 0.00 0.00 0.00 0.00 0.00 0.00 0.00 0.00 0.00 0.00 0.00 0.00 0.00 0.00 0.00 0.00 0.00 0.00
0.00 0.00 0.00 0.00 0.00 0.00 0.00 0.00 0.00 0.00 0.00 0.00 0.00 0.01 0.04 0.00 0.03 0.05 0.03 0.01 0.01 0.00 0.00 0.02 0.01 0.00 0.00 0.00 0.00 0.00 0.01 0.00 0.00 0.00 0.01 0.01 0.01 0.01 0.01 0.00 0.01 0.01 0.01 0.00 0.00 0.00 0.00 0.00 0.00 0.00 0.00 0.00 0.00 0.00 0.00 0.00 0.00 0.00 0.00 0.00 0.00 0.00 0.00
0.00 0.00 0.00 0.00 0.00 0.00 0.00 0.00 0.00 0.00 0.00 0.00 0.00 0.00 0.01 0.01 0.01 0.00 0.00 0.00 0.00 0.00 0.00 0.00 0.00 0.02 0.00 0.01 0.00 0.03 0.14 0.07 0.05 0.02 0.01 0.01 0.00 0.00 0.00 0.00 0.00 0.00 0.00 0.00 0.00 0.00 0.00 0.00 0.00 0.00 0.00 0.00 0.00 0.00 0.00 0.00 0.00 0.00 0.00 0.00 0.00 0.00 0.00
0.00 0.00 0.00 0.00 0.00 0.00 0.00 0.00 0.00 0.00 0.00 0.00 0.00 0.00 0.03 0.09 0.00 0.02 0.09 0.09 0.00 0.00 0.00 0.00 0.00 0.01 0.01 0.01 0.05 0.01 0.01 0.01 0.04 0.08 0.18 0.11 0.02 0.01 0.00 0.00 0.00 0.00 0.00 0.00 0.00 0.00 0.00 0.00 0.00 0.00 0.00 0.00 0.00 0.00 0.00 0.00 0.00 0.00 0.00 0.00 0.00 0.00 0.00
0.00 0.00 0.00 0.00 0.00 0.00 0.00 0.00 0.00 0.00 0.00 0.00 0.00 0.00 0.00 0.00 0.03 0.04 0.03 0.00 0.00 0.00 0.00 0.00 0.00 0.00 0.00 0.00 0.01 0.03 0.02 0.00 0.00 0.00 0.03 0.06 0.04 0.03 0.03 0.02 0.01 0.02 0.00 0.00 0.00 0.00 0.00 0.00 0.00 0.00 0.00 0.00 0.00 0.00 0.00 0.00 0.00 0.00 0.00 0.00 0.00 0.00 0.00
0.00 0.00 0.00 0.00 0.00 0.00 0.00 0.00 0.00 0.00 0.00 0.00 0.00 0.00 0.00 0.00 0.00 0.00 0.01 0.00 0.03 0.01 0.00 0.00 0.00 0.00 0.00 0.00 0.00 0.00 0.00 0.00 0.00 0.00 0.00 0.00 0.01 0.02 0.03 0.08 0.16 0.05 0.02 0.00 0.00 0.00 0.00 0.00 0.00 0.00 0.00 0.00 0.00 0.00 0.00 0.00 0.00 0.00 0.00 0.00 0.00 0.00 0.00
0.00 0.00 0.00 0.00 0.00 0.00 0.00 0.00 0.00 0.00 0.00 0.00 0.00 0.00 0.00 0.00 0.00 0.00 0.00 0.00 0.00 0.00 0.00 0.00 0.00 0.00 0.00 0.00 0.00 0.00 0.00 0.02 0.00 0.00 0.01 0.00 0.00 0.00 0.01 0.01 0.07 0.17 0.13 0.08 0.02 0.01 0.00 0.00 0.00 0.00 0.01 0.00 0.00 0.00 0.00 0.00 0.00 0.00 0.00 0.00 0.00 0.00 0.00
0.00 0.00 0.00 0.00 0.00 0.00 0.00 0.00 0.00 0.00 0.00 0.00 0.00 0.00 0.00 0.00 0.00 0.00 0.00 0.00 0.00 0.00 0.00 0.00 0.00 0.00 0.00 0.00 0.00 0.00 0.00 0.00 0.00 0.00 0.00 0.00 0.00 0.00 0.00 0.00 0.00 0.06 0.12 0.15 0.17 0.11 0.07 0.06 0.10 0.12 0.09 0.00 0.00 0.00 0.00 0.00 0.00 0.00 0.00 0.00 0.00 0.00 0.00
0.00 0.00 0.00 0.00 0.00 0.00 0.00 0.00 0.00 0.00 0.00 0.00 0.00 0.00 0.00 0.00 0.00 0.00 0.00 0.00 0.00 0.00 0.00 0.00 0.00 0.00 0.00 0.00 0.00 0.00 0.00 0.00 0.00 0.00 0.00 0.00 0.00 0.00 0.00 0.00 0.00 0.00 0.04 0.07 0.06 0.05 0.07 0.07 0.09 0.11 0.10 0.04 0.00 0.00 0.00 0.00 0.00 0.00 0.00 0.00 0.00 0.00 0.00
0.00 0.00 0.00 0.00 0.00 0.00 0.00 0.00 0.00 0.00 0.00 0.00 0.00 0.00 0.00 0.00 0.00 0.00 0.00 0.00 0.00 0.00 0.00 0.00 0.00 0.00 0.00 0.00 0.00 0.00 0.00 0.00 0.00 0.00 0.00 0.00 0.00 0.00 0.00 0.00 0.00 0.00 0.00 0.00 0.02 0.04 0.07 0.10 0.10 0.10 0.08 0.02 0.00 0.00 0.00 0.00 0.00 0.00 0.00 0.00 0.00 0.00 0.00
0.00 0.00 0.00 0.00 0.00 0.00 0.00 0.00 0.00 0.00 0.00 0.00 0.00 0.00 0.00 0.00 0.00 0.00 0.00 0.00 0.00 0.00 0.00 0.00 0.00 0.00 0.00 0.00 0.00 0.00 0.00 0.00 0.00 0.00 0.00 0.00 0.00 0.00 0.00 0.00 0.00 0.00 0.00 0.00 0.00 0.00 0.01 0.03 0.08 0.09 0.05 0.00 0.00 0.00 0.00 0.00 0.00 0.00 0.00 0.00 0.00 0.00 0.00
0.00 0.00 0.00 0.00 0.00 0.00 0.00 0.00 0.00 0.00 0.00 0.00 0.00 0.00 0.00 0.00 0.00 0.00 0.00 0.00 0.00 0.00 0.00 0.00 0.00 0.00 0.00 0.00 0.00 0.00 0.00 0.00 0.00 0.00 0.00 0.00 0.00 0.00 0.00 0.00 0.00 0.00 0.00 0.00 0.00 0.00 0.00 0.00 0.00 0.01 0.00 0.00 0.00 0.00 0.00 0.00 0.00 0.00 0.00 0.00 0.00 0.00 0.00
0.00 0.00 0.00 0.00 0.00 0.00 0.00 0.00 0.00 0.00 0.00 0.00 0.00 0.00 0.00 0.00 0.00 0.00 0.00 0.00 0.00 0.00 0.00 0.00 0.00 0.00 0.00 0.00 0.00 0.00 0.00 0.00 0.00 0.00 0.00 0.00 0.00 0.00 0.00 0.00 0.00 0.00 0.00 0.00 0.00 0.00 0.00 0.00 0.00 0.00 0.00 0.00 0.00 0.00 0.00 0.00 0.00 0.00 0.00 0.00 0.00 0.00 0.00
0.00 0.00 0.00 0.00 0.00 0.00 0.00 0.00 0.00 0.00 0.00 0.00 0.00 0.00 0.00 0.00 0.00 0.00 0.00 0.00 0.00 0.00 0.00 0.00 0.00 0.00 0.00 0.00 0.00 0.00 0.00 0.00 0.00 0.00 0.00 0.00 0.00 0.00 0.00 0.00 0.00 0.00 0.00 0.00 0.00 0.00 0.00 0.00 0.00 0.00 0.00 0.00 0.00 0.00 0.00 0.00 0.00 0.00 0.00 0.00 0.00 0.00 0.00
0.00 0.00 0.00 0.00 0.00 0.00 0.00 0.00 0.00 0.00 0.00 0.00 0.00 0.00 0.00 0.00 0.00 0.00 0.00 0.00 0.00 0.00 0.00 0.00 0.00 0.00 0.00 0.00 0.00 0.00 0.00 0.00 0.00 0.00 0.00 0.00 0.00 0.00 0.00 0.00 0.00 0.00 0.00 0.00 0.00 0.00 0.00 0.00 0.00 0.00 0.00 0.00 0.00 0.00 0.00 0.00 0.00 0.00 0.00 0.00 0.00 0.00 0.00
0.00 0.00 0.00 0.00 0.00 0.00 0.00 0.00 0.00 0.00 0.00 0.00 0.00 0.00 0.00 0.00 0.00 0.00 0.00 0.00 0.00 0.00 0.00 0.00 0.00 0.00 0.00 0.00 0.00 0.00 0.00 0.00 0.00 0.00 0.00 0.00 0.00 0.00 0.00 0.00 0.00 0.00 0.00 0.00 0.00 0.00 0.00 0.00 0.00 0.00 0.00 0.00 0.00 0.00 0.00 0.00 0.00 0.00 0.00 0.00 0.00 0.00 0.00
0.00 0.00 0.00 0.00 0.00 0.00 0.00 0.00 0.00 0.00 0.00 0.00 0.00 0.00 0.00 0.00 0.00 0.00 0.00 0.00 0.00 0.00 0.00 0.00 0.00 0.00 0.00 0.00 0.00 0.00 0.00 0.00 0.00 0.00 0.00 0.00 0.00 0.00 0.00 0.00 0.00 0.00 0.00 0.00 0.00 0.00 0.00 0.00 0.00 0.00 0.00 0.00 0.00 0.00 0.00 0.00 0.00 0.00 0.00 0.00 0.00 0.00 0.00
0.00 0.00 0.00 0.00 0.00 0.00 0.00 0.00 0.00 0.00 0.00 0.00 0.00 0.00 0.00 0.00 0.00 0.00 0.00 0.00 0.00 0.00 0.00 0.00 0.00 0.00 0.00 0.00 0.00 0.00 0.00 0.00 0.00 0.00 0.00 0.00 0.00 0.00 0.00 0.00 0.00 0.00 0.00 0.00 0.00 0.00 0.00 0.00 0.00 0.00 0.00 0.00 0.00 0.00 0.00 0.00 0.00 0.00 0.00 0.00 0.00 0.00 0.00
0.00 0.00 0.00 0.00 0.00 0.00 0.00 0.00 0.00 0.00 0.00 0.00 0.00 0.00 0.00 0.00 0.00 0.00 0.00 0.00 0.00 0.00 0.00 0.00 0.00 0.00 0.00 0.00 0.00 0.00 0.00 0.00 0.00 0.00 0.00 0.00 0.00 0.00 0.00 0.00 0.00 0.00 0.00 0.00 0.00 0.00 0.00 0.00 0.00 0.00 0.00 0.00 0.00 0.00 0.00 0.00 0.00 0.00 0.00 0.00 0.00 0.00 0.00
0.00 0.00 0.00 0.00 0.00 0.00 0.00 0.00 0.00 0.00 0.00 0.00 0.00 0.00 0.00 0.00 0.00 0.00 0.00 0.00 0.00 0.00 0.00 0.00 0.00 0.00 0.00 0.00 0.00 0.00 0.00 0.00 0.00 0.00 0.00 0.00 0.00 0.00 0.00 0.00 0.00 0.00 0.00 0.00 0.00 0.00 0.00 0.00 0.00 0.00 0.00 0.00 0.00 0.00 0.00 0.00 0.00 0.00 0.00 0.00 0.00 0.00 0.00
0.00 0.00 0.00 0.00 0.00 0.00 0.00 0.00 0.00 0.00 0.00 0.00 0.00 0.00 0.00 0.00 0.00 0.00 0.00 0.00 0.00 0.00 0.00 0.00 0.00 0.00 0.00 0.00 0.00 0.00 0.00 0.00 0.00 0.00 0.00 0.00 0.00 0.00 0.00 0.00 0.00 0.00 0.00 0.00 0.00 0.00 0.00 0.00 0.00 0.00 0.00 0.00 0.00 0.00 0.00 0.00 0.00 0.00 0.00 0.00 0.00 0.00 0.00
0.00 0.00 0.00 0.00 0.00 0.00 0.00 0.00 0.00 0.00 0.00 0.00 0.00 0.00 0.00 0.00 0.00 0.00 0.00 0.00 0.00 0.00 0.00 0.00 0.00 0.00 0.00 0.00 0.00 0.00 0.00 0.00 0.00 0.00 0.00 0.00 0.00 0.00 0.00 0.00 0.00 0.00 0.00 0.00 0.00 0.00 0.00 0.00 0.00 0.00 0.00 0.00 0.00 0.00 0.00 0.00 0.00 0.00 0.00 0.00 0.00 0.00 0.00
MSLP
1015.08 1015.12 1014.84 1014.76 1014.84 1014.84 1014.92 1014.80 1014.68 1014.96 1015.20 1015.48 1015.60 1015.72 1015.92 1016.12 1016.40 1016.60 1016.92 1017.20 1017.48 1017.84 1017.88 1017.96 1018.16 1018.28 1018.44 1018.56 1018.64 1018.72 1018.88 1019.08 1019.28 1019.56 1019.68 1019.76 1019.80 1019.96 1020.24 1020.32 1020.48 1020.56 1020.60 1020.80 1020.84 1020.80 1020.68 1020.60 1020.76 1020.80 1020.88 1021.00 1021.12 1021.20 1021.28 1021.28 1021.36 1021.40 1021.36 1021.40 1021.52 1021.56 1021.64
1015.28 1015.12 1015.08 1015.04 1015.32 1015.28 1015.60 1015.84 1015.40 1015.08 1015.16 1015.52 1015.64 1015.72 1015.92 1016.12 1016.36 1016.60 1016.76 1016.92 1017.16 1017.40 1017.68 1017.76 1018.00 1018.20 1018.28 1018.40 1018.48 1018.64 1018.96 1019.08 1019.20 1019.32 1019.44 1019.60 1019.64 1019.72 1019.76 1020.04 1020.20 1020.40 1020.40 1020.44 1020.48 1020.44 1020.48 1020.52 1020.60 1020.76 1020.92 1020.96 1021.04 1021.04 1021.20 1021.28 1021.32 1021.44 1021.52 1021.52 1021.64 1021.68 1021.60
1015.28 1015.12 1015.12 1015.68 1016.04 1015.36 1016.48 1017.08 1016.72 1016.44 1016.28 1016.04 1015.64 1015.60 1015.88 1016.04 1016.16 1016.32 1016.68 1016.96 1017.20 1017.28 1017.36 1017.56 1017.72 1017.92 1018.08 1018.28 1018.52 1018.68 1018.84 1019.04 1019.24 1019.36 1019.48 1019.60 1019.68 1019.68 1019.64 1019.76 1019.96 1020.12 1020.20 1020.16 1020.24 1020.36 1020.28 1020.44 1020.48 1020.56 1020.68 1020.88 1020.96 1021.00 1021.08 1021.20 1021.24 1021.36 1021.48 1021.56 1021.64 1021.68 1021.72
1015.52 1015.96 1016.24 1016.24 1016.28 1016.36 1016.84 1016.84 1016.68 1016.28 1015.72 1015.28 1015.40 1015.52 1015.60 1015.80 1015.72 1015.88 1016.24 1016.60 1017.04 1017.28 1017.56 1017.48 1017.56 1017.84 1018.00 1018.28 1018.52 1018.72 1018.84 1018.96 1019.08 1019.28 1019.32 1019.28 1019.48 1019.48 1019.64 1019.80 1019.84 1019.96 1020.20 1020.24 1020.08 1020.08 1020.12 1020.20 1020.40 1020.48 1020.52 1020.76 1020.88 1020.88 1020.96 1021.04 1021.12 1021.28 1021.40 1021.56 1021.68 1021.64 1021.68
1016.40 1016.56 1016.64 1017.04 1017.32 1017.28 1017.04 1016.84 1016.56 1015.80 1015.36 1015.28 1015.48 1015.64 1015.64 1015.40 1015.48 1015.72 1016.04 1016.32 1016.60 1016.96 1017.00 1017.12 1017.28 1017.52 1017.80 1018.04 1018.36 1018.56 1018.76 1018.92 1019.04 1019.08 1019.20 1019.20 1019.20 1019.36 1019.60 1019.80 1019.84 1019.96 1019.96 1019.96 1020.00 1020.08 1020.16 1020.28 1020.40 1020.44 1020.52 1020.64 1020.80 1020.84 1020.92 1020.92 1021.04 1021.16 1021.32 1021.48 1021.72 1021.72 1021.76
1017.24 1017.28 1017.48 1017.44 1017.20 1016.56 1016.48 1016.72 1016.48 1016.00 1015.76 1016.00 1016.20 1016.04 1015.88 1015.60 1015.44 1015.80 1015.92 1016.20 1016.60 1016.76 1016.96 1017.20 1017.40 1017.60 1018.00 1018.20 1018.44 1018.68 1018.80 1018.92 1018.92 1018.96 1019.08 1019.16 1019.28 1019.48 1019.56 1019.60 1019.68 1019.76 1019.92 1019.92 1019.88 1019.96 1020.04 1020.20 1020.32 1020.40 1020.52 1020.56 1020.68 1020.80 1020.84 1020.92 1020.92 1021.00 1021.20 1021.40 1021.52 1021.60 1021.76
1017.00 1017.16 1017.44 1017.20 1016.68 1016.44 1016.60 1016.64 1016.48 1016.12 1015.84 1015.72 1015.64 1015.92 1016.12 1016.00 1015.76 1015.76 1016.04 1016.36 1016.60 1017.04 1017.24 1017.44 1017.48 1017.72 1018.12 1018.48 1018.84 1019.04 1019.24 1019.24 1019.12 1019.08 1018.96 1019.04 1019.08 1019.28 1019.36 1019.40 1019.44 1019.52 1019.48 1019.56 1019.84 1019.84 1020.04 1020.16 1020.20 1020.24 1020.28 1020.40 1020.56 1020.72 1020.80 1020.88 1020.92 1020.84 1021.00 1021.24 1021.44 1021.44 1021.48
1017.04 1016.96 1016.68 1016.68 1016.52 1016.40 1016.64 1016.56 1016.40 1016.40 1016.20 1016.16 1016.40 1016.56 1016.52 1016.20 1016.16 1016.32 1016.52 1016.76 1017.24 1017.56 1017.92 1018.00 1018.32 1018.56 1019.12 1019.84 1020.12 1020.12 1020.12 1019.88 1019.64 1019.40 1019.16 1019.04 1019.08 1019.20 1019.20 1019.24 1019.28 1019.24 1019.32 1019.56 1019.48 1019.56 1019.80 1019.88 1019.96 1020.04 1020.12 1020.24 1020.36 1020.48 1020.56 1020.64 1020.68 1020.68 1020.80 1021.08 1021.28 1021.36 1021.32
1017.44 1017.28 1017.20 1016.88 1016.72 1016.60 1016.72 1016.80 1016.76 1016.72 1016.72 1016.76 1016.84 1016.80 1016.68 1016.68 1016.80 1016.96 1017.08 1017.28 1017.56 1018.08 1018.44 1019.00 1019.36 1019.32 1019.36 1019.48 1019.60 1019.44 1019.64 1019.68 1019.64 1019.44 1019.44 1019.44 1019.16 1019.24 1019.20 1019.16 1019.08 1018.96 1019.20 1019.28 1019.24 1019.20 1019.32 1019.52 1019.64 1019.80 1019.92 1020.04 1020.12 1020.24 1020.36 1020.44 1020.56 1020.52 1020.64 1020.84 1021.00 1021.16 1021.16
1017.88 1017.84 1017.72 1017.48 1017.16 1017.04 1017.00 1017.12 1017.12 1017.08 1017.16 1017.12 1017.00 1016.96 1016.88 1016.92 1017.00 1017.12 1017.40 1017.76 1017.92 1018.00 1018.20 1018.96 1019.04 1019.00 1018.52 1018.44 1018.44 1018.52 1018.96 1019.28 1019.56 1019.64 1019.68 1019.84 1019.72 1019.52 1019.48 1019.32 1019.16 1018.96 1018.96 1018.92 1018.96 1019.12 1019.04 1019.04 1019.20 1019.40 1019.64 1019.84 1019.92 1020.04 1020.12 1020.24 1020.32 1020.40 1020.44 1020.56 1020.68 1020.84 1020.92
1018.04 1017.96 1017.96 1017.92 1017.88 1017.76 1017.64 1017.68 1017.76 1017.72 1017.52 1017.48 1017.24 1017.04 1017.20 1017.28 1017.24 1017.36 1017.44 1017.48 1017.68 1017.56 1018.08 1018.80 1018.96 1018.92 1019.08 1019.04 1019.04 1019.04 1019.08 1019.12 1019.40 1019.68 1019.60 1019.52 1019.36 1019.24 1019.04 1019.04 1019.16 1019.12 1019.08 1019.04 1019.04 1018.84 1018.92 1019.00 1018.88 1019.12 1019.32 1019.60 1019.72 1019.84 1019.96 1020.04 1020.12 1020.28 1020.36 1020.36 1020.32 1020.48 1020.56
1018.12 1018.12 1018.24 1018.20 1018.20 1018.20 1018.28 1018.20 1018.00 1017.92 1017.84 1017.72 1017.52 1017.56 1017.76 1017.88 1017.96 1017.96 1017.96 1018.04 1017.80 1018.00 1018.52 1018.84 1018.56 1018.64 1018.80 1018.88 1019.16 1019.32 1019.28 1019.24 1019.24 1019.40 1019.44 1019.28 1019.12 1019.12 1019.12 1019.12 1019.04 1018.92 1018.88 1018.80 1018.96 1018.96 1018.80 1018.88 1018.96 1019.00 1019.16 1019.16 1019.24 1019.40 1019.56 1019.68 1019.88 1020.08 1020.16 1020.16 1020.20 1020.28 1020.32
1018.20 1018.20 1018.32 1018.36 1018.44 1018.52 1018.48 1018.52 1018.56 1018.36 1018.24 1018.08 1017.96 1017.80 1017.72 1017.76 1018.08 1018.28 1018.32 1018.20 1017.84 1018.04 1018.36 1018.32 1018.00 1018.32 1018.64 1018.92 1018.92 1019.20 1019.24 1019.20 1019.08 1019.16 1019.36 1019.28 1019.08 1019.00 1019.12 1019.04 1018.92 1018.84 1018.76 1018.56 1018.64 1018.76 1018.92 1018.84 1018.84 1018.80 1018.88 1018.96 1019.00 1019.12 1019.24 1019.40 1019.56 1019.80 1019.92 1020.00 1020.08 1020.20 1020.28
1018.20 1018.28 1018.36 1018.32 1018.44 1018.68 1019.04 1019.04 1018.88 1018.72 1018.60 1018.48 1018.32 1018.20 1018.04 1017.88 1018.00 1018.24 1018.16 1018.20 1018.00 1017.92 1017.88 1017.84 1017.96 1018.12 1018.32 1018.72 1019.00 1018.88 1018.80 1018.76 1018.76 1018.92 1019.16 1019.16 1019.04 1019.00 1019.00 1018.96 1018.88 1018.80 1018.56 1018.44 1018.56 1018.68 1018.68 1018.72 1018.76 1018.60 1018.60 1018.68 1018.76 1018.76 1018.84 1019.08 1019.32 1019.48 1019.60 1019.76 1019.88 1020.04 1020.20
1018.52 1018.64 1018.64 1018.72 1018.76 1018.76 1019.08 1019.36 1019.28 1019.12 1018.92 1018.72 1018.60 1018.48 1018.40 1018.24 1018.16 1018.16 1018.28 1018.04 1017.80 1017.72 1017.80 1017.80 1017.88 1018.04 1018.12 1018.36 1018.64 1018.72 1018.56 1018.56 1018.64 1018.80 1018.88 1018.92 1018.96 1019.00 1019.00 1018.96 1018.88 1018.76 1018.68 1018.60 1018.56 1018.48 1018.48 1018.36 1018.28 1018.52 1018.64 1018.56 1018.56 1018.60 1018.64 1018.84 1019.00 1019.08 1019.28 1019.56 1019.68 1019.72 1019.92
1018.52 1018.68 1018.80 1018.88 1018.88 1018.92 1019.08 1019.32 1019.32 1019.24 1019.00 1018.92 1018.88 1018.88 1018.76 1018.72 1018.60 1018.56 1018.60 1018.60 1017.92 1017.72 1017.84 1017.84 1018.12 1018.32 1018.52 1018.76 1018.92 1018.88 1018.80 1018.76 1018.76 1018.84 1018.96 1019.12 1019.20 1019.12 1019.08 1019.04 1018.92 1018.84 1018.80 1018.68 1018.56 1018.48 1018.36 1018.28 1018.04 1018.12 1018.40 1018.60 1018.56 1018.52 1018.52 1018.60 1018.56 1018.60 1018.72 1018.88 1019.12 1019.36 1019.48
1018.52 1018.60 1018.72 1018.84 1018.92 1019.04 1019.08 1019.12 1019.16 1019.16 1019.20 1019.12 1018.96 1019.00 1019.12 1019.12 1019.00 1018.88 1018.92 1018.80 1018.64 1018.44 1018.12 1018.04 1018.36 1018.60 1018.80 1019.00 1019.04 1019.08 1019.08 1019.04 1019.00 1019.04 1019.20 1019.20 1019.12 1019.00 1019.00 1018.96 1018.80 1018.72 1018.60 1018.48 1018.48 1018.48 1018.40 1018.40 1018.36 1018.08 1018.04 1018.28 1018.44 1018.60 1018.48 1018.36 1018.24 1018.24 1018.40 1018.56 1018.64 1018.84 1019.16
1018.56 1018.52 1018.60 1018.64 1018.80 1019.00 1019.04 1019.00 1019.00 1019.08 1019.24 1019.20 1019.04 1019.04 1019.08 1019.12 1019.12 1019.08 1019.20 1019.00 1018.88 1018.68 1018.48 1018.56 1018.68 1018.80 1018.92 1019.00 1019.00 1019.04 1019.12 1019.16 1019.16 1019.28 1019.32 1019.16 1019.16 1019.04 1018.96 1018.92 1018.96 1018.92 1018.72 1018.56 1018.48 1018.40 1018.36 1018.56 1018.56 1018.32 1018.12 1018.08 1018.12 1018.28 1018.36 1018.36 1018.12 1018.20 1018.32 1018.40 1018.52 1018.64 1018.80
1018.68 1018.72 1018.84 1018.76 1018.72 1018.80 1018.88 1018.96 1019.00 1019.00 1018.96 1019.04 1019.12 1019.08 1018.96 1019.00 1019.24 1019.44 1019.36 1019.28 1019.16 1019.00 1019.00 1019.04 1019.16 1019.24 1019.36 1019.32 1019.28 1019.20 1019.12 1019.16 1019.12 1019.24 1019.44 1019.32 1019.20 1019.12 1019.08 1019.12 1019.12 1019.12 1019.00 1018.80 1018.40 1018.28 1018.48 1018.56 1018.60 1018.52 1018.28 1018.20 1018.24 1018.28 1018.20 1018.12 1017.96 1018.00 1018.04 1018.20 1018.36 1018.48 1018.64
1018.56 1018.56 1018.56 1018.64 1018.84 1019.08 1019.16 1019.12 1019.00 1018.88 1018.80 1018.76 1018.80 1019.08 1019.16 1019.04 1019.28 1019.40 1019.32 1019.28 1019.28 1019.44 1019.52 1019.48 1019.60 1019.72 1019.80 1019.72 1019.52 1019.52 1019.44 1019.36 1019.36 1019.48 1020.00 1019.68 1019.28 1019.24 1019.28 1019.28 1019.28 1019.12 1018.92 1018.72 1018.48 1018.48 1018.56 1018.56 1018.64 1018.56 1018.44 1018.28 1018.28 1018.24 1018.08 1018.00 1017.76 1017.80 1017.76 1017.84 1018.04 1018.32 1018.76
1018.60 1018.60 1018.84 1019.00 1019.16 1019.28 1019.36 1019.32 1019.16 1019.00 1018.84 1018.80 1018.92 1019.12 1019.44 1019.40 1019.24 1019.28 1019.32 1019.28 1019.48 1019.48 1019.64 1019.68 1019.88 1019.84 1019.96 1020.16 1020.20 1020.00 1019.64 1019.60 1019.80 1019.96 1020.12 1019.88 1019.48 1019.40 1019.40 1019.32 1019.24 1019.12 1018.96 1018.84 1018.76 1018.64 1018.60 1018.60 1018.64 1018.56 1018.44 1018.24 1018.12 1018.08 1018.00 1017.76 1017.56 1017.64 1017.64 1017.72 1017.84 1017.92 1018.24
1018.80 1018.88 1019.16 1019.20 1019.24 1019.32 1019.28 1019.24 1019.20 1019.08 1019.00 1018.80 1018.76 1018.96 1019.04 1019.20 1019.08 1019.20 1019.48 1019.44 1019.64 1019.92 1019.92 1019.96 1020.16 1020.08 1019.92 1020.20 1020.32 1020.32 1020.24 1020.12 1020.16 1020.04 1019.92 1019.72 1019.60 1019.64 1019.64 1019.48 1019.40 1019.36 1019.12 1019.00 1018.88 1018.56 1018.32 1018.36 1018.44 1018.48 1018.40 1018.20 1018.04 1018.04 1018.00 1017.56 1017.36 1017.40 1017.52 1017.64 1017.72 1017.84 1018.08
1018.96 1019.08 1019.12 1019.16 1019.12 1019.32 1019.16 1019.08 1019.20 1019.16 1019.04 1019.04 1019.04 1019.16 1019.36 1019.32 1019.40 1019.56 1019.64 1019.88 1020.08 1020.12 1020.08 1020.00 1020.08 1020.12 1020.16 1020.24 1020.24 1020.28 1020.32 1020.32 1020.16 1020.00 1019.84 1019.84 1019.84 1019.84 1019.72 1019.60 1019.44 1019.24 1019.04 1019.12 1019.04 1018.92 1018.56 1018.48 1018.64 1018.56 1018.32 1018.00 1017.80 1017.84 1017.80 1017.64 1017.40 1017.44 1017.64 1017.76 1017.76 1018.00 1018.16
1019.08 1019.12 1019.24 1019.36 1019.40 1019.40 1019.44 1019.48 1019.48 1019.40 1019.36 1019.52 1019.60 1019.60 1019.52 1019.52 1019.68 1019.88 1020.08 1020.20 1020.20 1020.20 1020.28 1020.24 1020.32 1020.20 1020.16 1020.20 1020.20 1020.16 1020.12 1020.04 1020.04 1020.08 1020.00 1019.92 1019.96 1019.88 1019.72 1019.52 1019.36 1019.32 1019.04 1019.12 1019.12 1019.00 1018.76 1018.36 1018.48 1018.88 1018.56 1017.92 1017.60 1017.36 1017.48 1017.40 1017.36 1017.72 1018.04 1018.04 1018.00 1017.92 1017.92
1019.36 1019.40 1019.52 1019.72 1019.88 1020.04 1020.04 1020.00 1019.88 1019.92 1019.92 1020.00 1020.16 1020.04 1019.76 1019.68 1019.88 1020.28 1020.60 1020.60 1020.60 1020.56 1020.68 1020.72 1020.60 1020.48 1020.44 1020.28 1020.12 1020.12 1020.12 1020.08 1020.08 1020.12 1020.16 1020.12 1019.96 1019.80 1019.64 1019.44 1019.28 1019.08 1018.88 1018.80 1018.72 1018.64 1018.44 1018.32 1018.56 1019.04 1018.84 1017.92 1017.36 1017.08 1017.24 1017.32 1017.24 1017.36 1017.68 1017.76 1017.84 1017.88 1017.80
1019.76 1019.88 1020.04 1020.08 1020.16 1020.24 1020.32 1020.28 1020.24 1020.48 1020.64 1020.72 1020.72 1020.44 1020.28 1020.20 1020.28 1020.60 1020.92 1021.04 1020.92 1020.96 1021.04 1021.00 1020.80 1020.60 1020.40 1020.32 1020.24 1020.16 1020.12 1020.16 1020.20 1020.16 1020.20 1020.16 1019.96 1019.68 1019.48 1019.12 1018.88 1018.76 1018.60 1018.40 1018.24 1018.20 1018.16 1018.24 1018.64 1019.36 1019.24 1018.12 1017.40 1017.24 1017.16 1017.32 1017.24 1017.20 1017.24 1017.36 1017.44 1017.56 1017.64
1019.88 1019.92 1020.20 1020.32 1020.44 1020.28 1020.48 1020.72 1020.84 1021.08 1021.20 1021.16 1020.96 1020.80 1020.72 1020.72 1020.92 1021.20 1021.28 1021.20 1021.20 1021.36 1021.28 1021.08 1020.84 1020.68 1020.60 1020.44 1020.32 1020.24 1020.20 1020.12 1020.12 1020.16 1020.08 1020.04 1019.96 1019.76 1019.48 1019.24 1019.00 1018.68 1018.52 1018.40 1018.16 1018.16 1018.28 1018.64 1019.12 1019.36 1018.96 1018.04 1017.40 1017.28 1017.24 1017.24 1017.32 1017.12 1017.12 1017.16 1017.28 1017.44 1017.60
1020.08 1020.20 1020.20 1020.20 1020.24 1020.44 1020.76 1020.96 1021.16 1021.20 1021.28 1021.28 1021.20 1021.12 1021.16 1021.24 1021.52 1021.68 1021.64 1021.60 1021.68 1021.60 1021.32 1021.08 1020.96 1020.92 1020.76 1020.72 1020.64 1020.52 1020.36 1020.20 1020.04 1019.92 1019.92 1019.76 1019.68 1019.72 1019.56 1019.24 1019.08 1018.96 1018.84 1018.76 1018.80 1018.92 1019.04 1019.04 1019.08 1018.96 1018.52 1017.92 1017.48 1017.36 1017.28 1017.08 1017.08 1017.08 1016.96 1017.04 1017.16 1017.32 1017.48
1020.44 1020.64 1020.76 1020.72 1020.72 1020.72 1020.88 1021.32 1021.52 1021.64 1021.68 1021.56 1021.48 1021.44 1021.44 1021.52 1021.76 1021.88 1021.88 1021.96 1021.92 1021.60 1021.36 1021.24 1021.12 1021.00 1020.96 1020.88 1020.80 1020.76 1020.64 1020.48 1020.32 1020.16 1020.00 1019.88 1019.72 1019.68 1019.60 1019.32 1019.20 1019.04 1019.00 1019.04 1019.04 1019.04 1019.00 1018.88 1018.72 1018.52 1018.28 1017.92 1017.56 1017.36 1017.24 1017.12 1017.00 1017.00 1017.04 1016.92 1016.96 1016.96 1017.12
1020.60 1020.76 1020.88 1020.88 1020.92 1021.08 1021.16 1021.52 1021.72 1021.80 1021.84 1021.80 1021.76 1021.72 1021.72 1021.76 1021.96 1022.00 1022.08 1022.12 1021.88 1021.68 1021.52 1021.44 1021.36 1021.24 1021.20 1021.12 1021.08 1020.96 1020.84 1020.76 1020.60 1020.44 1020.24 1020.08 1019.96 1019.84 1019.72 1019.48 1019.32 1019.24 1019.20 1019.16 1019.20 1019.12 1019.04 1018.84 1018.64 1018.52 1018.40 1018.20 1017.88 1017.52 1017.32 1017.08 1017.00 1016.88 1016.88 1016.92 1016.88 1016.96 1017.08
1020.84 1020.96 1021.08 1021.20 1021.24 1021.20 1021.32 1021.56 1021.80 1021.88 1021.92 1021.88 1021.84 1021.88 1021.84 1021.84 1022.00 1022.08 1022.16 1022.00 1021.80 1021.76 1021.76 1021.68 1021.56 1021.52 1021.52 1021.44 1021.32 1021.16 1021.04 1020.84 1020.68 1020.52 1020.44 1020.36 1020.32 1020.28 1020.12 1019.88 1019.64 1019.64 1019.40 1019.40 1019.36 1019.32 1019.28 1019.08 1018.84 1018.76 1018.60 1018.40 1018.20 1017.84 1017.48 1017.20 1017.16 1017.12 1016.96 1016.84 1016.80 1016.84 1016.92
1021.00 1021.04 1021.16 1021.20 1021.32 1021.32 1021.48 1021.64 1021.80 1021.96 1022.08 1022.04 1021.92 1021.92 1021.88 1021.92 1021.96 1022.12 1022.00 1021.80 1021.72 1021.68 1021.72 1021.64 1021.60 1021.56 1021.56 1021.48 1021.40 1021.28 1021.08 1020.96 1020.68 1020.44 1020.40 1020.36 1020.36 1020.36 1020.32 1020.24 1020.08 1019.92 1019.72 1019.56 1019.52 1019.40 1019.36 1019.20 1018.96 1018.84 1018.80 1018.72 1018.44 1018.20 1017.92 1017.64 1017.52 1017.40 1017.12 1016.92 1016.80 1016.80 1016.76
1020.96 1021.00 1021.12 1021.36 1021.40 1021.40 1021.64 1021.84 1022.04 1022.12 1022.20 1022.24 1022.12 1022.04 1021.96 1022.00 1022.00 1021.96 1021.88 1021.84 1021.72 1021.68 1021.60 1021.56 1021.60 1021.60 1021.52 1021.44 1021.36 1021.20 1021.12 1021.00 1020.80 1020.56 1020.44 1020.32 1020.20 1020.16 1020.20 1020.20 1020.20 1020.12 1020.00 1019.88 1019.76 1019.60 1019.40 1019.28 1019.16 1019.12 1019.04 1018.96 1018.72 1018.44 1018.16 1017.96 1017.72 1017.48 1017.28 1017.08 1017.00 1016.88 1016.80
1020.88 1021.08 1021.20 1021.24 1021.36 1021.52 1021.76 1021.92 1022.08 1022.16 1022.20 1022.28 1022.28 1022.24 1022.20 1022.16 1022.16 1022.16 1022.12 1022.00 1021.92 1021.80 1021.72 1021.72 1021.72 1021.72 1021.68 1021.56 1021.44 1021.36 1021.24 1021.16 1020.96 1020.84 1020.80 1020.56 1020.40 1020.32 1020.16 1020.08 1020.08 1020.16 1020.16 1020.08 1019.92 1019.84 1019.72 1019.56 1019.48 1019.44 1019.32 1019.16 1018.88 1018.64 1018.40 1018.20 1017.92 1017.68 1017.48 1017.20 1017.12 1017.00 1016.92
1020.80 1020.96 1021.20 1021.36 1021.52 1021.64 1021.80 1021.92 1022.04 1022.04 1022.16 1022.32 1022.36 1022.36 1022.44 1022.48 1022.44 1022.36 1022.24 1022.20 1022.12 1022.04 1021.96 1021.96 1021.92 1021.88 1021.88 1021.80 1021.72 1021.68 1021.48 1021.40 1021.32 1021.20 1021.08 1020.96 1020.72 1020.52 1020.40 1020.28 1020.08 1020.04 1019.84 1019.64 1019.56 1019.60 1019.72 1019.68 1019.52 1019.36 1019.16 1019.12 1019.04 1019.00 1018.76 1018.32 1018.08 1017.56 1017.16 1017.16 1017.24 1017.36 1017.24
1020.80 1020.92 1021.20 1021.32 1021.40 1021.56 1021.64 1021.72 1021.88 1022.12 1022.28 1022.48 1022.48 1022.44 1022.44 1022.48 1022.44 1022.36 1022.28 1022.20 1022.12 1022.12 1022.16 1022.16 1022.08 1022.04 1022.04 1021.92 1021.88 1021.76 1021.60 1021.52 1021.44 1021.32 1021.24 1021.12 1021.00 1020.76 1020.48 1020.08 1019.96 1019.88 1019.88 1019.60 1019.16 1019.04 1019.08 1019.32 1019.36 1019.12 1019.08 1019.04 1018.80 1018.72 1018.72 1018.36 1017.72 1017.20 1017.04 1017.00 1017.00 1016.96 1017.00
1020.72 1021.04 1021.20 1021.32 1021.44 1021.56 1021.68 1021.96 1022.16 1022.32 1022.52 1022.56 1022.48 1022.48 1022.48 1022.44 1022.40 1022.36 1022.28 1022.20 1022.20 1022.20 1022.20 1022.24 1022.20 1022.20 1022.20 1022.12 1022.00 1021.84 1021.60 1021.52 1021.40 1021.24 1021.12 1021.04 1020.96 1020.84 1020.68 1020.40 1020.04 1019.84 1019.64 1019.52 1019.32 1019.12 1018.96 1018.72 1018.60 1018.48 1018.48 1018.60 1018.56 1018.08 1017.96 1017.84 1017.60 1017.48 1017.32 1017.24 1017.08 1016.92 1016.72
1020.48 1020.68 1021.00 1021.28 1021.52 1021.84 1022.04 1022.20 1022.36 1022.44 1022.52 1022.52 1022.48 1022.52 1022.52 1022.48 1022.44 1022.40 1022.32 1022.32 1022.32 1022.28 1022.28 1022.28 1022.32 1022.32 1022.32 1022.20 1022.08 1021.88 1021.72 1021.60 1021.48 1021.32 1021.20 1021.04 1020.92 1020.80 1020.68 1020.52 1020.24 1019.84 1019.64 1019.48 1019.28 1019.20 1019.00 1018.80 1018.64 1018.40 1018.16 1017.88 1017.80 1017.88 1017.80 1017.40 1017.20 1017.16 1017.12 1016.96 1016.76 1016.60 1016.48
Thickness
5783 5784 5789 5790 5791 5793 5794 5796 5798 5798 5798 5797 5798 5798 5798 5796 5795 5795 5794 5792 5790 5789 5789 5790 5789 5789 5788 5789 5789 5789 5789 5789 5789 5788 5788 5787 5787 5786 5784 5784 5783 5782 5783 5783 5782 5784 5785 5785 5784 5784 5784 5783 5782 5783 5782 5782 5782 5782 5783 5784 5784 5785 5785
5781 5783 5787 5784 5785 5789 5787 5784 5788 5793 5795 5796 5797 5797 5796 5795 5794 5794 5793 5792 5791 5790 5790 5790 5789 5788 5788 5788 5789 5788 5788 5788 5788 5788 5788 5787 5787 5787 5786 5785 5784 5784 5784 5784 5785 5785 5786 5785 5785 5784 5784 5783 5783 5783 5782 5782 5782 5782 5782 5783 5783 5784 5784
5779 5780 5780 5777 5781 5784 5776 5772 5779 5786 5791 5795 5798 5797 5796 5795 5795 5794 5793 5791 5791 5790 5790 5790 5789 5788 5788 5787 5786 5786 5786 5786 5786 5786 5786 5786 5786 5787 5787 5786 5786 5785 5784 5785 5785 5785 5786 5786 5785 5785 5784 5783 5783 5784 5783 5783 5783 5782 5781 5781 5781 5783 5783
5774 5773 5771 5770 5773 5772 5769 5772 5779 5786 5794 5799 5799 5797 5796 5797 5797 5796 5795 5792 5790 5790 5789 5790 5789 5788 5787 5786 5785 5784 5784 5784 5784 5784 5785 5786 5787 5787 5787 5785 5785 5785 5784 5785 5786 5786 5786 5786 5786 5786 5785 5784 5784 5783 5783 5783 5783 5782 5782 5781 5780 5781 5782
5765 5765 5764 5764 5766 5767 5771 5776 5779 5786 5793 5795 5794 5792 5793 5797 5797 5796 5794 5793 5792 5790 5790 5790 5790 5788 5786 5785 5783 5782 5782 5782 5782 5783 5784 5785 5786 5786 5785 5784 5784 5785 5784 5784 5785 5785 5786 5786 5785 5785 5785 5784 5783 5783 5783 5783 5783 5783 5782 5781 5780 5780 5781
5758 5758 5758 5761 5767 5772 5775 5775 5775 5783 5787 5787 5788 5788 5789 5793 5795 5794 5792 5792 5791 5789 5789 5788 5787 5786 5783 5781 5780 5778 5777 5778 5779 5781 5782 5783 5784 5784 5785 5785 5785 5785 5784 5785 5785 5785 5785 5785 5785 5785 5785 5785 5783 5783 5783 5783 5783 5783 5782 5781 5781 5781 5781
5757 5758 5758 5762 5770 5774 5774 5773 5775 5780 5783 5785 5786 5784 5785 5789 5792 5792 5790 5788 5786 5784 5784 5784 5783 5781 5777 5774 5772 5771 5771 5772 5775 5778 5780 5782 5783 5783 5785 5785 5786 5786 5786 5786 5785 5785 5785 5784 5785 5785 5785 5785 5784 5784 5783 5783 5783 5784 5783 5782 5781 5782 5782
5757 5760 5761 5765 5770 5772 5772 5772 5773 5775 5778 5780 5779 5779 5782 5786 5788 5787 5785 5783 5779 5776 5776 5775 5772 5771 5768 5766 5766 5767 5769 5771 5774 5778 5780 5782 5783 5784 5785 5786 5787 5789 5788 5787 5788 5788 5787 5786 5787 5787 5786 5786 5785 5784 5784 5784 5784 5785 5784 5783 5782 5782 5783
5753 5755 5759 5763 5766 5768 5768 5769 5770 5772 5774 5774 5774 5776 5779 5781 5781 5780 5779 5777 5772 5770 5771 5766 5763 5765 5769 5771 5774 5774 5773 5772 5774 5776 5779 5780 5781 5782 5784 5785 5788 5790 5790 5790 5790 5791 5791 5790 5790 5789 5788 5788 5786 5786 5785 5785 5785 5786 5785 5785 5784 5784 5785
5748 5750 5753 5756 5759 5762 5763 5764 5765 5767 5769 5770 5772 5774 5775 5776 5777 5775 5774 5772 5771 5772 5770 5764 5762 5767 5772 5776 5778 5778 5776 5774 5773 5773 5773 5775 5777 5779 5782 5783 5786 5788 5789 5790 5791 5793 5793 5794 5794 5793 5791 5789 5788 5788 5787 5787 5786 5786 5786 5787 5786 5786 5786
5744 5746 5748 5750 5752 5754 5756 5757 5759 5762 5764 5766 5769 5771 5770 5771 5771 5771 5770 5771 5772 5773 5768 5763 5764 5766 5768 5770 5772 5771 5772 5773 5772 5770 5771 5773 5777 5780 5782 5783 5785 5787 5788 5789 5789 5792 5793 5794 5795 5795 5793 5792 5791 5790 5789 5788 5787 5786 5786 5787 5788 5788 5788
5742 5744 5745 5745 5746 5747 5749 5751 5754 5757 5759 5761 5764 5766 5765 5765 5766 5766 5766 5768 5770 5769 5764 5762 5765 5766 5767 5767 5767 5767 5767 5769 5772 5771 5770 5773 5777 5780 5780 5781 5783 5785 5787 5788 5789 5790 5791 5792 5794 5795 5795 5794 5794 5792 5791 5790 5789 5787 5787 5786 5787 5787 5788
5739 5741 5741 5742 5743 5742 5743 5745 5748 5752 5754 5755 5758 5760 5762 5764 5763 5762 5763 5764 5767 5767 5764 5765 5767 5768 5767 5765 5766 5766 5767 5768 5771 5772 5771 5771 5775 5777 5778 5779 5781 5783 5786 5788 5789 5789 5789 5790 5791 5793 5794 5794 5795 5794 5793 5792 5790 5788 5787 5786 5786 5786 5786
5735 5737 5737 5739 5739 5739 5738 5739 5742 5746 5748 5750 5752 5755 5758 5761 5761 5760 5761 5762 5765 5766 5766 5767 5768 5768 5767 5766 5765 5767 5768 5770 5772 5771 5770 5770 5772 5775 5777 5779 5780 5782 5785 5787 5788 5789 5789 5789 5790 5792 5793 5794 5794 5794 5794 5793 5790 5789 5788 5787 5786 5786 5785
5730 5732 5733 5734 5735 5736 5735 5733 5736 5740 5743 5746 5749 5751 5753 5756 5757 5758 5759 5761 5765 5766 5767 5768 5768 5767 5767 5765 5764 5765 5768 5770 5771 5771 5770 5770 5772 5773 5775 5777 5778 5780 5782 5784 5786 5787 5789 5790 5791 5791 5791 5792 5793 5793 5794 5793 5791 5791 5790 5788 5787 5786 5786
5726 5728 5728 5730 5731 5732 5732 5731 5733 5736 5739 5743 5745 5746 5748 5750 5751 5752 5753 5757 5762 5764 5766 5767 5765 5764 5763 5761 5760 5762 5763 5765 5767 5768 5768 5768 5770 5771 5771 5774 5776 5778 5780 5783 5785 5786 5787 5789 5790 5790 5789 5790 5790 5791 5793 5792 5792 5792 5791 5790 5789 5788 5787
5723 5725 5726 5727 5728 5728 5729 5730 5730 5732 5735 5739 5741 5742 5743 5743 5746 5747 5748 5751 5755 5758 5761 5763 5761 5760 5759 5758 5758 5759 5759 5761 5763 5764 5765 5766 5768 5770 5770 5772 5774 5777 5780 5782 5784 5785 5785 5786 5787 5789 5789 5788 5789 5789 5790 5791 5792 5792 5792 5791 5791 5790 5789
5720 5721 5722 5724 5725 5726 5727 5728 5728 5729 5731 5734 5737 5740 5740 5741 5741 5742 5744 5747 5750 5753 5757 5757 5757 5756 5755 5756 5757 5758 5758 5759 5761 5761 5762 5764 5766 5767 5768 5769 5771 5773 5776 5779 5781 5783 5784 5783 5782 5785 5787 5787 5787 5788 5788 5790 5791 5792 5791 5792 5792 5791 5790
5716 5716 5718 5719 5720 5722 5723 5724 5726 5727 5729 5731 5734 5735 5737 5739 5738 5738 5741 5743 5745 5748 5750 5751 5751 5750 5751 5753 5754 5756 5757 5758 5759 5759 5758 5759 5762 5764 5765 5765 5766 5768 5771 5775 5778 5780 5780 5781 5781 5782 5783 5784 5785 5785 5787 5788 5790 5792 5792 5792 5792 5792 5791
5713 5714 5716 5716 5716 5717 5718 5720 5723 5725 5728 5729 5731 5731 5733 5734 5735 5735 5737 5740 5741 5742 5743 5744 5745 5745 5745 5747 5749 5751 5753 5754 5756 5754 5752 5753 5758 5760 5760 5761 5762 5765 5768 5772 5775 5776 5777 5777 5778 5779 5780 5782 5782 5783 5785 5788 5790 5792 5792 5792 5792 5791 5789
5710 5711 5711 5711 5712 5713 5714 5716 5719 5722 5725 5727 5728 5729 5728 5730 5732 5733 5734 5736 5737 5737 5738 5739 5740 5740 5741 5741 5742 5745 5748 5749 5749 5748 5747 5750 5754 5756 5756 5758 5760 5762 5765 5768 5771 5772 5774 5774 5775 5776 5777 5779 5781 5781 5784 5787 5791 5792 5792 5791 5790 5789 5787
5705 5705 5705 5706 5707 5708 5711 5713 5715 5718 5721 5724 5725 5726 5725 5727 5729 5729 5730 5732 5731 5730 5732 5734 5734 5735 5737 5737 5737 5739 5741 5743 5743 5744 5745 5748 5751 5752 5753 5755 5757 5759 5762 5765 5766 5769 5772 5772 5772 5772 5775 5777 5779 5780 5782 5786 5790 5790 5789 5788 5786 5785 5783
5700 5700 5700 5702 5704 5706 5708 5709 5711 5714 5716 5718 5719 5720 5720 5722 5723 5724 5724 5725 5725 5725 5727 5729 5730 5731 5733 5734 5734 5735 5736 5738 5739 5741 5743 5745 5747 5748 5750 5753 5755 5758 5760 5762 5763 5765 5768 5769 5769 5769 5771 5775 5779 5781 5782 5784 5787 5786 5784 5783 5782 5780 5779
5694 5695 5695 5697 5698 5700 5701 5702 5705 5708 5709 5711 5711 5712 5714 5716 5716 5716 5716 5716 5718 5720 5721 5723 5724 5726 5728 5729 5731 5732 5734 5735 5737 5738 5740 5741 5743 5745 5747 5751 5753 5756 5759 5760 5760 5762 5765 5768 5767 5765 5766 5773 5778 5781 5782 5783 5783 5780 5778 5778 5779 5779 5779
5686 5687 5689 5690 5691 5692 5693 5694 5698 5701 5701 5702 5702 5704 5707 5709 5710 5710 5708 5709 5711 5712 5714 5716 5717 5720 5723 5724 5727 5729 5731 5732 5733 5734 5735 5737 5740 5743 5745 5749 5752 5754 5757 5759 5760 5761 5763 5765 5765 5760 5761 5768 5776 5780 5780 5780 5780 5778 5777 5777 5778 5779 5780
5678 5680 5681 5682 5683 5685 5685 5687 5690 5691 5691 5692 5693 5696 5699 5701 5702 5702 5701 5702 5704 5705 5706 5708 5712 5715 5717 5719 5723 5725 5726 5728 5729 5729 5731 5733 5736 5740 5743 5746 5750 5753 5756 5758 5761 5762 5763 5763 5761 5755 5756 5764 5772 5776 5776 5775 5776 5777 5777 5777 5778 5778 5779
5672 5673 5674 5675 5676 5677 5678 5678 5680 5681 5681 5683 5686 5689 5691 5692 5693 5693 5693 5696 5696 5697 5700 5703 5706 5709 5712 5714 5717 5719 5721 5723 5725 5725 5728 5729 5732 5736 5739 5743 5746 5749 5752 5755 5758 5759 5758 5757 5754 5750 5752 5761 5768 5771 5772 5773 5773 5774 5776 5776 5776 5775 5776
5665 5665 5666 5668 5669 5670 5671 5670 5671 5673 5673 5676 5679 5681 5683 5684 5684 5684 5686 5688 5688 5690 5694 5697 5700 5703 5705 5707 5709 5711 5714 5717 5719 5721 5724 5726 5729 5732 5734 5738 5741 5743 5746 5748 5749 5750 5749 5749 5749 5749 5754 5761 5765 5767 5769 5770 5771 5772 5773 5773 5773 5773 5772
5657 5657 5657 5659 5660 5662 5664 5663 5663 5664 5665 5668 5671 5673 5675 5676 5676 5677 5678 5680 5682 5685 5688 5691 5693 5696 5698 5700 5702 5704 5707 5709 5711 5714 5717 5720 5723 5726 5728 5732 5735 5737 5739 5741 5741 5742 5743 5745 5747 5750 5753 5758 5762 5764 5766 5768 5768 5769 5769 5770 5771 5771 5770
5649 5649 5650 5651 5651 5654 5656 5655 5656 5657 5658 5660 5663 5664 5667 5668 5668 5670 5671 5673 5676 5680 5682 5684 5686 5689 5691 5693 5695 5697 5699 5701 5704 5706 5709 5712 5714 5718 5721 5724 5727 5730 5732 5734 5735 5736 5738 5740 5743 5746 5749 5752 5755 5759 5762 5764 5765 5765 5766 5767 5768 5768 5768
5641 5641 5642 5643 5643 5646 5647 5648 5649 5650 5650 5652 5655 5657 5659 5662 5662 5663 5665 5668 5671 5674 5675 5677 5679 5681 5683 5685 5688 5691 5693 5696 5698 5701 5703 5704 5705 5708 5711 5714 5718 5720 5723 5725 5728 5729 5731 5734 5737 5739 5742 5744 5747 5752 5756 5758 5758 5759 5760 5762 5764 5764 5764
5634 5635 5636 5635 5636 5639 5640 5641 5641 5642 5643 5645 5648 5650 5652 5654 5655 5656 5659 5662 5666 5668 5670 5672 5674 5675 5677 5679 5681 5685 5687 5690 5693 5695 5697 5699 5700 5701 5703 5705 5708 5711 5714 5717 5719 5721 5724 5727 5730 5732 5734 5737 5740 5743 5747 5750 5751 5752 5755 5757 5759 5760 5761
5628 5630 5630 5630 5631 5632 5633 5633 5633 5634 5636 5638 5640 5643 5645 5647 5649 5651 5653 5656 5659 5661 5664 5666 5667 5669 5671 5673 5675 5678 5681 5684 5687 5690 5692 5694 5696 5697 5698 5699 5700 5703 5706 5709 5711 5715 5718 5720 5723 5725 5726 5729 5732 5735 5738 5742 5744 5747 5749 5752 5754 5755 5756
5622 5623 5623 5624 5625 5625 5625 5625 5626 5627 5629 5630 5632 5635 5637 5638 5640 5642 5645 5648 5651 5653 5656 5657 5659 5661 5663 5665 5668 5670 5673 5675 5678 5681 5684 5686 5690 5691 5693 5694 5695 5696 5698 5701 5704 5707 5710 5712 5715 5718 5720 5722 5725 5728 5731 5735 5738 5741 5744 5746 5747 5748 5750
5614 5616 5616 5617 5618 5618 5618 5619 5619 5621 5622 5623 5624 5626 5628 5629 5631 5634 5636 5639 5641 5644 5646 5648 5651 5653 5654 5657 5659 5661 5664 5666 5668 5671 5674 5677 5680 5684 5686 5689 5691 5692 5694 5697 5699 5701 5703 5705 5708 5711 5714 5717 5719 5721 5724 5727 5732 5736 5740 5741 5741 5741 5743
5606 5608 5609 5611 5612 5612 5613 5613 5613 5614 5614 5614 5616 5618 5619 5621 5623 5626 5629 5631 5633 5636 5638 5640 5642 5644 5645 5647 5650 5652 5655 5658 5660 5663 5666 5668 5671 5674 5678 5682 5685 5687 5690 5692 5695 5697 5699 5701 5703 5706 5708 5710 5714 5716 5719 5722 5727 5731 5733 5735 5736 5737 5739
5601 5602 5602 5603 5604 5604 5604 5604 5605 5605 5605 5606 5608 5610 5611 5614 5616 5618 5621 5623 5626 5628 5629 5631 5633 5634 5636 5638 5641 5644 5647 5650 5653 5656 5659 5661 5663 5666 5669 5673 5677 5680 5684 5687 5689 5691 5694 5697 5700 5703 5704 5706 5709 5712 5715 5719 5722 5724 5726 5728 5731 5733 5735
5597 5597 5596 5595 5596 5595 5594 5595 5596 5596 5597 5598 5600 5601 5603 5605 5608 5610 5613 5615 5617 5619 5621 5623 5624 5625 5627 5629 5633 5636 5639 5641 5644 5647 5650 5652 5656 5658 5660 5664 5667 5671 5676 5680 5683 5685 5687 5690 5693 5697 5700 5703 5705 5707 5710 5713 5717 5719 5721 5723 5726 5728 5730